Southern Pines, NC

7:19 AM EST on November 15, 2019 (GMT -0500)
Moore County

Weather History for KSOP - August, 2019

Change the Weather History Date:

Sunday, August 18, 2019

  Actual Average Record
Temperature  
Mean Temperature 82 °F -  
Max Temperature 93 °F 85 °F 97 °F (2017)
Min Temperature 71 °F 65 °F 61 °F (1981)
Cooling Degree Days 17    
Growing Degree Days 32 (Base 50)    
Moisture  
Dew Point 72 °F    
Average Humidity 83    
Maximum Humidity 100    
Minimum Humidity 47    
Precipitation  
Precipitation 0.00 in - - ()
Sea Level Pressure  
Sea Level Pressure 30.04 in    
Wind  
Wind Speed 2 mph (SSW)    
Max Wind Speed 9 mph    
Max Gust Speed -    
Visibility 6 miles    
Events Fog    
Averages and records for this station are not official NWS values.
T = Trace of Precipitation, MM = Missing Value Source: NWS Daily Summary

Daily Weather History Graph

Daily Weather History Graph

Search for Another Location

Airport or City:

Astronomy

Aug. 18, 2019 Rise Set
Actual Time 6:39 AM EDT 8:02 PM EDT
Civil Twilight 6:12 AM EDT 8:29 PM EDT
Nautical Twilight 5:40 AM EDT 9:01 PM EDT
Astronomical Twilight 5:07 AM EDT 9:34 PM EDT
Moon 10:02 PM EDT (8/18) 9:18 AM EDT (8/18)
Length of Visible Light 14h 17m
Length of Day
13h 23m
Waning Gibbous, 91% of the Moon is Illuminated
Aug 18
Waning Gibbous
Aug 23
Last Quarter
Aug 30
New
Sep 5
First Quarter
Sep 14
Full

Hourly Weather History & Observations

Time (EDT) Temp. Heat Index Dew Point Humidity Pressure Visibility Wind Dir Wind Speed Gust Speed Precip Events Conditions
12:13 AM 73.4 °F - 71.6 °F 94% 30.01 in 10.0 mi East 3.5 mph - N/A   Overcast
12:56 AM 73.9 °F - 72.0 °F 93% 30.06 in 10.0 mi Calm Calm - N/A   Overcast
1:56 AM 75.0 °F - 73.0 °F 94% 30.05 in 10.0 mi Calm Calm - N/A   Overcast
2:50 AM 73.4 °F - 71.6 °F 94% 30.01 in 10.0 mi Calm Calm - N/A   Overcast
2:56 AM 73.9 °F - 72.0 °F 93% 30.04 in 10.0 mi Calm Calm - N/A   Overcast
3:54 AM 73.4 °F - 71.6 °F 94% 30.01 in 1.8 mi NW 3.5 mph - N/A   Overcast
3:56 AM 73.0 °F - 72.0 °F 96% 30.04 in 1.2 mi Calm Calm - N/A   Overcast
3:59 AM 73.4 °F - 71.6 °F 94% 30.01 in 0.8 mi WNW 3.5 mph - N/A   Overcast
4:13 AM 73.4 °F - 71.6 °F 94% 30.00 in 0.5 mi WSW 4.6 mph - N/A Fog Fog
4:19 AM 73.4 °F - 71.6 °F 94% 30.00 in 1.0 mi Calm Calm - N/A   Overcast
4:23 AM 73.4 °F - 71.6 °F 94% 30.00 in 2.0 mi West 3.5 mph - N/A   Overcast
4:36 AM 73.4 °F - 71.6 °F 94% 30.00 in 6.0 mi WSW 3.5 mph - N/A   Overcast
4:56 AM 73.0 °F - 72.0 °F 96% 30.03 in 6.0 mi Calm Calm - N/A   Overcast
5:19 AM 71.6 °F - 71.6 °F 100% 30.00 in 1.8 mi Calm Calm - N/A   Overcast
5:56 AM 73.0 °F - 71.1 °F 93% 30.04 in 1.2 mi Calm Calm - N/A   Overcast
6:03 AM 71.6 °F - 71.6 °F 100% 30.01 in 0.8 mi Calm Calm - N/A   Overcast
6:23 AM 71.6 °F - 71.6 °F 100% 30.02 in 0.5 mi Calm Calm - N/A Fog Fog
6:52 AM 71.6 °F - 71.6 °F 100% 30.03 in 0.2 mi Calm Calm - N/A Fog Fog
6:56 AM 72.0 °F - 71.1 °F 97% 30.06 in 0.2 mi Calm Calm - N/A Fog Fog
7:24 AM 71.6 °F - 71.6 °F 100% 30.03 in 0.5 mi Calm Calm - N/A Fog Fog
7:43 AM 71.6 °F - 71.6 °F 100% 30.04 in 0.8 mi Calm Calm - N/A   Overcast
7:49 AM 73.4 °F - 71.6 °F 94% 30.04 in 1.2 mi Calm Calm - N/A   Overcast
7:54 AM 73.4 °F - 71.6 °F 94% 30.04 in 3.0 mi Calm Calm - N/A   Overcast
7:56 AM 73.0 °F - 71.1 °F 93% 30.07 in 3.0 mi Calm Calm - N/A   Overcast
8:49 AM 75.2 °F - 71.6 °F 89% 30.06 in 10.0 mi SSW 4.6 mph - N/A   Overcast
9:21 AM 78.8 °F - 71.6 °F 78% 30.06 in 10.0 mi Calm Calm - N/A   Overcast
9:56 AM 80.1 °F 84.2 °F 73.0 °F 79% 30.10 in 10.0 mi Variable 3.5 mph - N/A   Overcast
10:56 AM 82.9 °F 89.4 °F 73.9 °F 74% 30.11 in 10.0 mi Calm Calm - N/A   Mostly Cloudy
11:20 AM 84.2 °F 90.9 °F 73.4 °F 70% - 10.0 mi Variable 4.6 mph - N/A   Mostly Cloudy
11:35 AM 84.2 °F 92.3 °F 75.2 °F 74% 30.08 in 10.0 mi West 3.5 mph - N/A   Scattered Clouds
11:49 AM 86.0 °F 93.4 °F 73.4 °F 66% 30.07 in 10.0 mi Calm Calm - N/A   Mostly Cloudy
11:56 AM 86.0 °F 93.8 °F 73.9 °F 67% 30.10 in 10.0 mi Calm Calm - N/A   Scattered Clouds
12:56 PM 88.0 °F 96.5 °F 73.9 °F 63% 30.10 in 10.0 mi Variable 4.6 mph - N/A   Overcast
1:56 PM 91.0 °F 98.2 °F 72.0 °F 53% 30.08 in 10.0 mi Variable 5.8 mph - N/A   Partly Cloudy
2:56 PM 91.9 °F 99.5 °F 72.0 °F 52% 30.06 in 9.0 mi ESE 6.9 mph - N/A   Partly Cloudy
3:56 PM 93.0 °F 99.0 °F 70.0 °F 47% 30.04 in 10.0 mi SW 3.5 mph - N/A   Overcast
4:56 PM 90.0 °F 96.4 °F 71.1 °F 54% 30.04 in 10.0 mi ESE 4.6 mph - N/A   Mostly Cloudy
5:56 PM 89.1 °F 96.0 °F 72.0 °F 57% 30.03 in 10.0 mi South 4.6 mph - N/A   Mostly Cloudy
6:56 PM 88.0 °F 94.7 °F 72.0 °F 59% 30.01 in 10.0 mi South 4.6 mph - N/A   Partly Cloudy
7:56 PM 87.1 °F 94.5 °F 73.0 °F 63% 30.03 in 10.0 mi SSW 9.2 mph - N/A   Mostly Cloudy
8:56 PM 82.9 °F 89.4 °F 73.9 °F 74% 30.04 in 10.0 mi SSW 5.8 mph - N/A   Clear
9:56 PM 81.0 °F 86.2 °F 73.9 °F 79% 30.06 in 10.0 mi SSW 3.5 mph - N/A   Clear
10:56 PM 79.0 °F - 73.9 °F 84% 30.07 in 10.0 mi SSW 3.5 mph - N/A   Clear
11:56 PM 79.0 °F - 73.9 °F 84% 30.06 in 10.0 mi South 3.5 mph - N/A   Clear